Time,TemperatureF,DewpointF,PressureIn,WindDirection,WindDirectionDegrees,WindSpeedMPH,WindSpeedGustMPH,Humidity,HourlyPrecipIn,Conditions,Clouds,dailyrainin,SoftwareType,DateUTC
2013-03-23 00:02:00,79.0,61.4,29.80,NNW,337,0.0,5.0,55,0.00,CLR,,0.00,WeatherDisplay:10.37,2013-03-22 13:02:00,
2013-03-23 00:11:00,79.0,61.4,29.80,NNW,338,1.0,4.0,55,0.00,CLR,,0.00,WeatherDisplay:10.37,2013-03-22 13:11:00,
2013-03-23 00:16:00,78.9,61.4,29.80,NNW,331,0.0,3.0,55,0.00,CLR,,0.00,WeatherDisplay:10.37,2013-03-22 13:16:00,
2013-03-23 00:22:00,78.7,61.1,29.80,NNW,338,0.0,1.0,55,0.00,CLR,,0.00,WeatherDisplay:10.37,2013-03-22 13:22:00,
2013-03-23 00:27:00,78.6,61.1,29.80,North,351,0.0,3.0,55,0.00,CLR,,0.00,WeatherDisplay:10.37,2013-03-22 13:27:00,
2013-03-23 00:31:00,78.6,61.1,29.81,North,1,0.0,2.0,55,0.00,CLR,,0.00,WeatherDisplay:10.37,2013-03-22 13:31:00,
2013-03-23 00:36:00,78.6,61.1,29.81,NNW,345,2.0,6.0,55,0.00,CLR,,0.00,WeatherDisplay:10.37,2013-03-22 13:36:00,
2013-03-23 00:41:00,78.6,61.1,29.81,North,352,0.0,3.0,55,0.00,CLR,,0.00,WeatherDisplay:10.37,2013-03-22 13:41:00,
2013-03-23 00:51:00,78.6,61.1,29.80,NNE,15,0.0,2.0,55,0.00,CLR,,0.00,WeatherDisplay:10.37,2013-03-22 13:51:00,
2013-03-23 00:56:00,78.6,61.1,29.81,NNW,342,3.0,6.0,55,0.00,CLR,,0.00,WeatherDisplay:10.37,2013-03-22 13:56:00,
2013-03-23 01:01:00,78.6,61.1,29.81,NNW,338,1.0,5.0,55,0.00,CLR,,0.00,WeatherDisplay:10.37,2013-03-22 14:01:00,
2013-03-23 01:06:00,78.4,61.4,29.81,NNW,348,1.0,6.0,56,0.00,CLR,,0.00,WeatherDisplay:10.37,2013-03-22 14:06:00,
2013-03-23 01:12:00,78.4,61.9,29.81,NNW,331,3.0,8.0,57,0.00,CLR,,0.00,WeatherDisplay:10.37,2013-03-22 14:12:00,
2013-03-23 01:17:00,78.3,62.3,29.81,NNW,343,1.0,4.0,58,0.00,CLR,,0.00,WeatherDisplay:10.37,2013-03-22 14:17:00,
2013-03-23 01:21:00,78.1,63.1,29.81,North,349,1.0,6.0,60,0.00,CLR,,0.00,WeatherDisplay:10.37,2013-03-22 14:21:00,
2013-03-23 01:27:00,77.7,63.2,29.81,NNW,338,0.0,5.0,61,0.00,CLR,,0.00,WeatherDisplay:10.37,2013-03-22 14:27:00,
2013-03-23 01:36:00,77.2,62.7,29.81,NW,326,1.0,5.0,61,0.00,CLR,,0.00,WeatherDisplay:10.37,2013-03-22 14:36:00,
2013-03-23 01:41:00,76.8,62.4,29.81,NW,312,0.0,2.0,61,0.00,CLR,,0.00,WeatherDisplay:10.37,2013-03-22 14:41:00,
2013-03-23 01:46:00,76.8,62.8,29.80,NW,318,0.0,5.0,62,0.00,CLR,,0.00,WeatherDisplay:10.37,2013-03-22 14:46:00,
2013-03-23 01:51:00,76.6,62.6,29.80,NW,304,0.0,2.0,62,0.00,CLR,,0.00,WeatherDisplay:10.37,2013-03-22 14:51:00,
2013-03-23 01:56:00,76.6,62.6,29.80,WNW,300,0.0,3.0,62,0.00,CLR,,0.00,WeatherDisplay:10.37,2013-03-22 14:56:00,
2013-03-23 02:06:00,76.5,62.9,29.80,NNW,331,3.0,5.0,63,0.00,CLR,,0.00,WeatherDisplay:10.37,2013-03-22 15:06:00,
2013-03-23 02:12:00,76.3,62.3,29.80,NNW,335,1.0,6.0,62,0.00,CLR,,0.00,WeatherDisplay:10.37,2013-03-22 15:12:00,
2013-03-23 02:17:00,76.3,62.3,29.79,NNW,337,2.0,7.0,62,0.00,CLR,,0.00,WeatherDisplay:10.37,2013-03-22 15:17:00,
2013-03-23 02:22:00,76.3,62.3,29.79,NNW,340,2.0,6.0,62,0.00,CLR,,0.00,WeatherDisplay:10.37,2013-03-22 15:22:00,
2013-03-23 02:27:00,76.1,62.1,29.80,NW,312,1.0,3.0,62,0.00,CLR,,0.00,WeatherDisplay:10.37,2013-03-22 15:27:00,
2013-03-23 02:31:00,76.1,62.1,29.80,NW,309,3.0,5.0,62,0.00,CLR,,0.00,WeatherDisplay:10.37,2013-03-22 15:31:00,
2013-03-23 02:36:00,76.2,61.7,29.80,NNW,336,2.0,10.0,61,0.00,CLR,,0.00,WeatherDisplay:10.37,2013-03-22 15:36:00,
2013-03-23 02:41:00,76.3,61.8,29.80,NNW,343,2.0,5.0,61,0.00,CLR,,0.00,WeatherDisplay:10.37,2013-03-22 15:41:00,
2013-03-23 02:46:00,76.5,61.5,29.80,NNW,339,2.0,6.0,60,0.00,CLR,,0.00,WeatherDisplay:10.37,2013-03-22 15:46:00,
2013-03-23 02:51:00,76.6,61.7,29.80,NNW,341,2.0,7.0,60,0.00,CLR,,0.00,WeatherDisplay:10.37,2013-03-22 15:51:00,
2013-03-23 02:56:00,76.6,61.7,29.79,North,352,3.0,5.0,60,0.00,CLR,,0.00,WeatherDisplay:10.37,2013-03-22 15:56:00,
2013-03-23 03:01:00,76.6,61.7,29.78,NNW,347,1.0,6.0,60,0.00,CLR,,0.00,WeatherDisplay:10.37,2013-03-22 16:01:00,
2013-03-23 03:07:00,76.8,61.9,29.77,North,8,2.0,6.0,60,0.00,CLR,,0.00,WeatherDisplay:10.37,2013-03-22 16:07:00,
2013-03-23 03:11:00,76.7,61.8,29.77,North,2,1.0,6.0,60,0.00,CLR,,0.00,WeatherDisplay:10.37,2013-03-22 16:11:00,
2013-03-23 03:16:00,76.6,61.7,29.78,North,352,0.0,5.0,60,0.00,CLR,,0.00,WeatherDisplay:10.37,2013-03-22 16:16:00,
2013-03-23 03:21:00,76.6,61.7,29.78,NNW,341,1.0,6.0,60,0.00,CLR,,0.00,WeatherDisplay:10.37,2013-03-22 16:21:00,
2013-03-23 03:26:00,76.6,61.7,29.79,NNW,329,1.0,7.0,60,0.00,CLR,,0.00,WeatherDisplay:10.37,2013-03-22 16:26:00,
2013-03-23 03:31:00,76.6,61.7,29.78,NNW,332,1.0,4.0,60,0.00,CLR,,0.00,WeatherDisplay:10.37,2013-03-22 16:31:00,
2013-03-23 03:36:00,76.6,61.6,29.77,North,353,2.0,5.0,60,0.00,CLR,,0.00,WeatherDisplay:10.37,2013-03-22 16:36:00,
2013-03-23 03:41:00,76.6,61.7,29.78,NNW,336,0.0,4.0,60,0.00,CLR,,0.00,WeatherDisplay:10.37,2013-03-22 16:41:00,
2013-03-23 03:47:00,76.6,61.7,29.77,NW,324,1.0,6.0,60,0.00,CLR,,0.00,WeatherDisplay:10.37,2013-03-22 16:47:00,
2013-03-23 03:51:00,76.6,61.6,29.77,NNW,335,3.0,6.0,60,0.00,CLR,,0.00,WeatherDisplay:10.37,2013-03-22 16:51:00,
2013-03-23 03:56:00,76.5,61.6,29.77,NW,312,3.0,6.0,60,0.00,CLR,,0.00,WeatherDisplay:10.37,2013-03-22 16:56:00,
2013-03-23 04:02:00,76.5,61.5,29.77,NNW,328,2.0,5.0,60,0.00,CLR,,0.00,WeatherDisplay:10.37,2013-03-22 17:02:00,
2013-03-23 04:06:00,76.3,61.4,29.77,NNW,331,2.0,13.0,60,0.00,CLR,,0.00,WeatherDisplay:10.37,2013-03-22 17:06:00,
2013-03-23 04:11:00,76.3,61.4,29.77,NW,325,2.0,5.0,60,0.00,CLR,,0.00,WeatherDisplay:10.37,2013-03-22 17:11:00,
2013-03-23 04:16:00,76.3,61.4,29.77,NW,324,0.0,3.0,60,0.00,CLR,,0.00,WeatherDisplay:10.37,2013-03-22 17:16:00,
2013-03-23 04:21:00,76.1,61.2,29.77,NW,316,1.0,11.0,60,0.00,CLR,,0.00,WeatherDisplay:10.37,2013-03-22 17:21:00,
2013-03-23 04:27:00,76.1,61.2,29.78,NNW,338,3.0,11.0,60,0.00,CLR,,0.00,WeatherDisplay:10.37,2013-03-22 17:27:00,
2013-03-23 04:36:00,75.9,61.0,29.77,NW,318,2.0,8.0,60,0.00,CLR,,0.00,WeatherDisplay:10.37,2013-03-22 17:36:00,
2013-03-23 04:41:00,75.9,61.0,29.77,NW,323,3.0,8.0,60,0.00,CLR,,0.00,WeatherDisplay:10.37,2013-03-22 17:41:00,
2013-03-23 04:46:00,75.9,61.0,29.77,NNW,330,2.0,6.0,60,0.00,CLR,,0.00,WeatherDisplay:10.37,2013-03-22 17:46:00,
2013-03-23 04:51:00,75.9,61.0,29.76,NW,320,1.0,7.0,60,0.00,CLR,,0.00,WeatherDisplay:10.37,2013-03-22 17:51:00,
2013-03-23 04:56:00,75.9,61.0,29.77,NW,323,2.0,6.0,60,0.00,CLR,,0.00,WeatherDisplay:10.37,2013-03-22 17:56:00,
2013-03-23 05:01:00,75.7,60.9,29.76,NW,325,3.0,10.0,60,0.00,CLR,,0.00,WeatherDisplay:10.37,2013-03-22 18:01:00,
2013-03-23 05:06:00,75.7,60.9,29.77,NW,315,3.0,10.0,60,0.00,CLR,,0.00,WeatherDisplay:10.37,2013-03-22 18:06:00,
2013-03-23 05:12:00,75.7,60.9,29.77,WNW,301,0.0,8.0,60,0.00,CLR,,0.00,WeatherDisplay:10.37,2013-03-22 18:12:00,
2013-03-23 05:16:00,75.9,61.0,29.77,WNW,300,1.0,5.0,60,0.00,CLR,,0.00,WeatherDisplay:10.37,2013-03-22 18:16:00,
2013-03-23 05:21:00,75.8,60.9,29.77,NW,318,1.0,4.0,60,0.00,CLR,,0.00,WeatherDisplay:10.37,2013-03-22 18:21:00,
2013-03-23 05:26:00,75.7,60.9,29.78,NW,306,0.0,5.0,60,0.00,CLR,,0.00,WeatherDisplay:10.37,2013-03-22 18:26:00,
2013-03-23 05:31:00,75.7,60.9,29.78,West,269,3.0,7.0,60,0.00,CLR,,0.00,WeatherDisplay:10.37,2013-03-22 18:31:00,
2013-03-23 05:36:00,75.7,60.9,29.78,WSW,249,1.0,8.0,60,0.00,CLR,,0.00,WeatherDisplay:10.37,2013-03-22 18:36:00,
2013-03-23 05:42:00,75.7,60.9,29.78,WSW,254,1.0,8.0,60,0.00,CLR,,0.00,WeatherDisplay:10.37,2013-03-22 18:42:00,
2013-03-23 05:46:00,75.7,60.9,29.79,West,266,1.0,8.0,60,0.00,CLR,,0.00,WeatherDisplay:10.37,2013-03-22 18:46:00,
2013-03-23 05:51:00,75.7,60.9,29.79,WSW,247,3.0,7.0,60,0.00,CLR,,0.00,WeatherDisplay:10.37,2013-03-22 18:51:00,
2013-03-23 05:57:00,75.7,60.9,29.79,WSW,253,1.0,5.0,60,0.00,CLR,,0.00,WeatherDisplay:10.37,2013-03-22 18:57:00,
2013-03-23 06:06:00,75.7,60.9,29.80,West,262,1.0,5.0,60,0.00,CLR,,0.00,WeatherDisplay:10.37,2013-03-22 19:06:00,
2013-03-23 06:11:00,75.7,60.9,29.80,WSW,246,0.0,3.0,60,0.00,CLR,,0.00,WeatherDisplay:10.37,2013-03-22 19:11:00,
2013-03-23 06:16:00,75.7,60.9,29.80,SW,221,0.0,1.0,60,0.00,CLR,,0.00,WeatherDisplay:10.37,2013-03-22 19:16:00,
2013-03-23 06:21:00,75.7,60.9,29.80,SSW,211,0.0,0.0,60,0.00,CLR,,0.00,WeatherDisplay:10.37,2013-03-22 19:21:00,
2013-03-23 06:27:00,75.7,61.3,29.80,SW,214,1.0,7.0,61,0.00,CLR,,0.00,WeatherDisplay:10.37,2013-03-22 19:27:00,
2013-03-23 06:36:00,75.6,61.2,29.80,SW,222,0.0,2.0,61,0.00,CLR,,0.00,WeatherDisplay:10.37,2013-03-22 19:36:00,
2013-03-23 06:41:00,75.5,61.1,29.80,SW,218,0.0,2.0,61,0.00,CLR,,0.00,WeatherDisplay:10.37,2013-03-22 19:41:00,
2013-03-23 06:46:00,75.4,61.0,29.81,SSW,213,0.0,2.0,61,0.00,CLR,,0.00,WeatherDisplay:10.37,2013-03-22 19:46:00,
2013-03-23 06:51:00,75.4,61.5,29.81,SSW,209,1.0,2.0,62,0.00,CLR,,0.00,WeatherDisplay:10.37,2013-03-22 19:51:00,
2013-03-23 06:56:00,75.1,61.2,29.81,SSW,211,1.0,2.0,62,0.00,CLR,,0.00,WeatherDisplay:10.37,2013-03-22 19:56:00,
2013-03-23 07:02:00,75.0,61.1,29.81,SSW,210,1.0,6.0,62,0.00,CLR,,0.00,WeatherDisplay:10.37,2013-03-22 20:02:00,
2013-03-23 07:07:00,75.0,61.6,29.82,SSW,213,0.0,2.0,63,0.00,CLR,,0.00,WeatherDisplay:10.37,2013-03-22 20:07:00,
2013-03-23 07:11:00,74.8,61.4,29.82,SSW,211,1.0,3.0,63,0.00,CLR,,0.00,WeatherDisplay:10.37,2013-03-22 20:11:00,
2013-03-23 07:16:00,74.6,61.2,29.82,SSW,194,0.0,0.0,63,0.00,CLR,,0.00,WeatherDisplay:10.37,2013-03-22 20:16:00,
2013-03-23 07:22:00,74.6,61.1,29.83,NE,50,0.0,0.0,63,0.00,CLR,,0.00,WeatherDisplay:10.37,2013-03-22 20:22:00,
2013-03-23 07:26:00,74.5,61.5,29.82,SE,131,0.0,0.0,64,0.00,CLR,,0.00,WeatherDisplay:10.37,2013-03-22 20:26:00,
2013-03-23 07:31:00,74.3,61.3,29.82,SSW,203,0.0,0.0,64,0.00,CLR,,0.00,WeatherDisplay:10.37,2013-03-22 20:31:00,
2013-03-23 07:36:00,74.3,61.3,29.83,SSW,207,0.0,2.0,64,0.00,CLR,,0.00,WeatherDisplay:10.37,2013-03-22 20:36:00,
2013-03-23 07:41:00,74.3,61.3,29.83,SSW,210,0.0,5.0,64,0.00,CLR,,0.00,WeatherDisplay:10.37,2013-03-22 20:41:00,
2013-03-23 07:47:00,74.3,61.3,29.83,SW,219,0.0,0.0,64,0.00,CLR,,0.00,WeatherDisplay:10.37,2013-03-22 20:47:00,
2013-03-23 07:51:00,74.3,61.8,29.83,SW,224,0.0,2.0,65,0.00,CLR,,0.00,WeatherDisplay:10.37,2013-03-22 20:51:00,
2013-03-23 07:57:00,74.3,61.8,29.83,WSW,237,0.0,0.0,65,0.00,CLR,,0.00,WeatherDisplay:10.37,2013-03-22 20:57:00,
2013-03-23 08:01:00,74.5,61.9,29.84,West,262,0.0,0.0,65,0.00,CLR,,0.00,WeatherDisplay:10.37,2013-03-22 21:01:00,
2013-03-23 08:11:00,74.8,62.3,29.84,NW,324,0.0,0.0,65,0.00,CLR,,0.00,WeatherDisplay:10.37,2013-03-22 21:11:00,
2013-03-23 08:16:00,75.0,62.5,29.84,NW,318,0.0,0.0,65,0.00,CLR,,0.00,WeatherDisplay:10.37,2013-03-22 21:16:00,
2013-03-23 08:21:00,75.4,62.8,29.84,NNW,340,0.0,0.0,65,0.00,CLR,,0.00,WeatherDisplay:10.37,2013-03-22 21:21:00,
2013-03-23 08:27:00,75.6,62.5,29.84,North,354,0.0,0.0,64,0.00,CLR,,0.00,WeatherDisplay:10.37,2013-03-22 21:27:00,
2013-03-23 08:31:00,75.9,62.9,29.85,North,10,0.0,0.0,64,0.00,CLR,,0.00,WeatherDisplay:10.37,2013-03-22 21:31:00,
2013-03-23 08:36:00,76.1,63.0,29.85,NNE,32,0.0,2.0,64,0.00,CLR,,0.00,WeatherDisplay:10.37,2013-03-22 21:36:00,
2013-03-23 08:42:00,76.3,63.2,29.85,NNE,30,1.0,2.0,64,0.00,CLR,,0.00,WeatherDisplay:10.37,2013-03-22 21:42:00,
2013-03-23 08:46:00,76.3,63.2,29.85,NNE,15,0.0,2.0,64,0.00,CLR,,0.00,WeatherDisplay:10.37,2013-03-22 21:46:00,
2013-03-23 08:51:00,76.6,63.1,29.86,North,358,0.0,2.0,63,0.00,CLR,,0.00,WeatherDisplay:10.37,2013-03-22 21:51:00,
2013-03-23 08:56:00,76.7,63.1,29.86,NNW,347,0.0,1.0,63,0.00,CLR,,0.00,WeatherDisplay:10.37,2013-03-22 21:56:00,
2013-03-23 09:01:00,76.9,62.9,29.86,North,7,0.0,2.0,62,0.00,CLR,,0.00,WeatherDisplay:10.37,2013-03-22 22:01:00,
2013-03-23 09:06:00,77.4,63.4,29.86,North,3,0.0,2.0,62,0.00,CLR,,0.00,WeatherDisplay:10.37,2013-03-22 22:06:00,
2013-03-23 09:11:00,77.8,64.2,29.86,WSW,245,0.0,2.0,63,0.00,CLR,,0.00,WeatherDisplay:10.37,2013-03-22 22:11:00,
2013-03-23 09:21:00,78.6,65.0,29.86,SW,233,1.0,3.0,63,0.00,CLR,,0.00,WeatherDisplay:10.37,2013-03-22 22:21:00,
2013-03-23 09:32:00,79.6,64.9,29.87,SW,236,0.0,3.0,61,0.00,CLR,,0.00,WeatherDisplay:10.37,2013-03-22 22:32:00,
2013-03-23 09:37:00,80.2,65.6,29.87,SW,231,0.0,4.0,61,0.00,CLR,,0.00,WeatherDisplay:10.37,2013-03-22 22:37:00,
2013-03-23 09:46:00,81.1,65.4,29.87,WSW,239,0.0,2.0,59,0.00,CLR,,0.00,WeatherDisplay:10.37,2013-03-22 22:46:00,
2013-03-23 09:52:00,81.4,65.2,29.87,WSW,251,0.0,4.0,58,0.00,CLR,,0.00,WeatherDisplay:10.37,2013-03-22 22:52:00,
2013-03-23 09:56:00,81.7,65.5,29.88,SW,233,1.0,2.0,58,0.00,CLR,,0.00,WeatherDisplay:10.37,2013-03-22 22:56:00,
2013-03-23 10:01:00,82.2,65.9,29.87,SW,228,0.0,2.0,58,0.00,CLR,,0.00,WeatherDisplay:10.37,2013-03-22 23:01:00,
2013-03-23 10:06:00,82.2,65.5,29.88,WSW,245,1.0,2.0,57,0.00,CLR,,0.00,WeatherDisplay:10.37,2013-03-22 23:06:00,
2013-03-23 10:11:00,82.2,65.5,29.87,NNE,21,0.0,2.0,57,0.00,CLR,,0.00,WeatherDisplay:10.37,2013-03-22 23:11:00,
2013-03-23 10:17:00,82.2,65.5,29.88,WNW,296,0.0,0.0,57,0.00,CLR,,0.00,WeatherDisplay:10.37,2013-03-22 23:17:00,
2013-03-23 10:21:00,82.0,65.3,29.87,NNE,32,0.0,2.0,57,0.00,CLR,,0.00,WeatherDisplay:10.37,2013-03-22 23:21:00,
2013-03-23 10:26:00,82.0,65.3,29.87,North,3,0.0,0.0,57,0.00,CLR,,0.00,WeatherDisplay:10.37,2013-03-22 23:26:00,
2013-03-23 10:32:00,82.2,65.4,29.88,West,262,0.0,0.0,57,0.00,CLR,,0.00,WeatherDisplay:10.37,2013-03-22 23:32:00,
2013-03-23 10:36:00,82.2,65.5,29.88,WSW,244,1.0,5.0,57,0.00,CLR,,0.00,WeatherDisplay:10.37,2013-03-22 23:36:00,
2013-03-23 10:41:00,82.8,65.5,29.88,SW,222,1.0,5.0,56,0.00,CLR,,0.00,WeatherDisplay:10.37,2013-03-22 23:41:00,
2013-03-23 10:46:00,82.9,65.6,29.87,SW,221,0.0,1.0,56,0.00,CLR,,0.00,WeatherDisplay:10.37,2013-03-22 23:46:00,
2013-03-23 10:52:00,83.6,66.2,29.88,West,272,0.0,0.0,56,0.00,CLR,,0.00,WeatherDisplay:10.37,2013-03-22 23:52:00,
2013-03-23 11:01:00,84.7,66.8,29.87,SW,216,2.0,5.0,55,0.00,CLR,,0.00,WeatherDisplay:10.37,2013-03-23 00:01:00,
2013-03-23 11:06:00,85.6,67.1,29.87,WSW,243,1.0,6.0,54,0.00,CLR,,0.00,WeatherDisplay:10.37,2013-03-23 00:06:00,
2013-03-23 11:11:00,86.5,66.8,29.87,West,261,2.0,6.0,52,0.00,CLR,,0.00,WeatherDisplay:10.37,2013-03-23 00:11:00,
2013-03-23 11:16:00,87.0,67.3,29.86,NW,311,0.0,2.0,52,0.00,CLR,,0.00,WeatherDisplay:10.37,2013-03-23 00:16:00,
2013-03-23 11:21:00,87.6,67.2,29.86,WNW,299,2.0,4.0,51,0.00,CLR,,0.00,WeatherDisplay:10.37,2013-03-23 00:21:00,
2013-03-23 11:27:00,87.6,67.3,29.87,West,268,0.0,6.0,51,0.00,CLR,,0.00,WeatherDisplay:10.37,2013-03-23 00:27:00,
2013-03-23 11:31:00,88.2,67.2,29.86,West,268,2.0,6.0,50,0.00,CLR,,0.00,WeatherDisplay:10.37,2013-03-23 00:31:00,
2013-03-23 11:36:00,88.7,67.1,29.86,WSW,257,0.0,4.0,49,0.00,CLR,,0.00,WeatherDisplay:10.37,2013-03-23 00:36:00,
2013-03-23 11:41:00,89.2,67.6,29.86,WSW,240,1.0,4.0,49,0.00,CLR,,0.00,WeatherDisplay:10.37,2013-03-23 00:41:00,
2013-03-23 11:46:00,89.4,67.7,29.85,West,279,1.0,5.0,49,0.00,CLR,,0.00,WeatherDisplay:10.37,2013-03-23 00:46:00,
2013-03-23 11:51:00,89.9,68.2,29.85,NNW,341,0.0,5.0,49,0.00,CLR,,0.00,WeatherDisplay:10.37,2013-03-23 00:51:00,
2013-03-23 11:57:00,90.3,67.9,29.85,North,358,0.0,4.0,48,0.00,CLR,,0.00,WeatherDisplay:10.37,2013-03-23 00:57:00,
2013-03-23 12:02:00,90.3,68.0,29.85,North,2,0.0,4.0,48,0.00,CLR,,0.00,WeatherDisplay:10.37,2013-03-23 01:02:00,
2013-03-23 12:06:00,90.9,67.9,29.84,WNW,286,0.0,2.0,47,0.00,CLR,,0.00,WeatherDisplay:10.37,2013-03-23 01:06:00,
2013-03-23 12:12:00,91.2,68.2,29.84,NW,315,1.0,4.0,47,0.00,CLR,,0.00,WeatherDisplay:10.37,2013-03-23 01:12:00,
2013-03-23 12:21:00,91.5,68.4,29.84,NW,307,2.0,6.0,47,0.00,CLR,,0.00,WeatherDisplay:10.37,2013-03-23 01:21:00,
2013-03-23 12:27:00,91.9,68.2,29.83,WNW,287,3.0,5.0,46,0.00,CLR,,0.00,WeatherDisplay:10.37,2013-03-23 01:27:00,
2013-03-23 12:31:00,92.2,68.5,29.83,WNW,294,1.0,4.0,46,0.00,CLR,,0.00,WeatherDisplay:10.37,2013-03-23 01:31:00,
2013-03-23 12:36:00,92.7,68.2,29.84,NW,306,1.0,5.0,45,0.00,CLR,,0.00,WeatherDisplay:10.37,2013-03-23 01:36:00,
2013-03-23 12:41:00,92.5,68.0,29.83,WNW,286,1.0,5.0,45,0.00,CLR,,0.00,WeatherDisplay:10.37,2013-03-23 01:41:00,
2013-03-23 12:46:00,92.5,68.7,29.83,WNW,300,2.0,8.0,46,0.00,CLR,,0.00,WeatherDisplay:10.37,2013-03-23 01:46:00,
2013-03-23 12:51:00,92.6,68.1,29.83,NW,306,1.0,6.0,45,0.00,CLR,,0.00,WeatherDisplay:10.37,2013-03-23 01:51:00,
2013-03-23 12:56:00,93.0,68.5,29.82,West,270,1.0,6.0,45,0.00,CLR,,0.00,WeatherDisplay:10.37,2013-03-23 01:56:00,
2013-03-23 13:01:00,92.8,68.4,29.82,West,266,1.0,5.0,45,0.00,CLR,,0.00,WeatherDisplay:10.37,2013-03-23 02:01:00,
2013-03-23 13:06:00,92.8,68.4,29.81,WNW,294,1.0,6.0,45,0.00,CLR,,0.00,WeatherDisplay:10.37,2013-03-23 02:06:00,
2013-03-23 13:11:00,92.9,68.4,29.81,West,275,2.0,10.0,45,0.00,CLR,,0.00,WeatherDisplay:10.37,2013-03-23 02:11:00,
2013-03-23 13:16:00,93.0,68.5,29.81,WNW,285,0.0,4.0,45,0.00,CLR,,0.00,WeatherDisplay:10.37,2013-03-23 02:16:00,
2013-03-23 13:21:00,93.4,68.9,29.81,NW,314,1.0,4.0,45,0.00,CLR,,0.00,WeatherDisplay:10.37,2013-03-23 02:21:00,
2013-03-23 13:26:00,93.7,68.5,29.81,NW,314,1.0,5.0,44,0.00,CLR,,0.00,WeatherDisplay:10.37,2013-03-23 02:26:00,
2013-03-23 13:32:00,93.9,68.0,29.81,NW,309,2.0,7.0,43,0.00,CLR,,0.00,WeatherDisplay:10.37,2013-03-23 02:32:00,
2013-03-23 13:41:00,93.9,68.0,29.81,NW,318,2.0,7.0,43,0.00,CLR,,0.00,WeatherDisplay:10.37,2013-03-23 02:41:00,
2013-03-23 13:46:00,93.6,67.7,29.81,NNW,348,2.0,9.0,43,0.00,CLR,,0.00,WeatherDisplay:10.37,2013-03-23 02:46:00,
2013-03-23 13:51:00,93.4,66.9,29.80,North,358,2.0,9.0,42,0.00,CLR,,0.00,WeatherDisplay:10.37,2013-03-23 02:51:00,
2013-03-23 13:56:00,93.4,67.5,29.80,NNW,329,2.0,7.0,43,0.00,CLR,,0.00,WeatherDisplay:10.37,2013-03-23 02:56:00,
2013-03-23 14:02:00,93.4,67.5,29.80,NNW,332,2.0,7.0,43,0.00,CLR,,0.00,WeatherDisplay:10.37,2013-03-23 03:02:00,
2013-03-23 14:06:00,93.6,67.8,29.80,NW,307,3.0,12.0,43,0.00,CLR,,0.00,WeatherDisplay:10.37,2013-03-23 03:06:00,
2013-03-23 14:11:00,93.7,67.2,29.80,WNW,298,3.0,12.0,42,0.00,CLR,,0.00,WeatherDisplay:10.37,2013-03-23 03:11:00,
2013-03-23 14:16:00,93.6,67.0,29.79,NW,306,3.0,12.0,42,0.00,CLR,,0.00,WeatherDisplay:10.37,2013-03-23 03:16:00,
2013-03-23 14:22:00,93.7,67.2,29.79,WNW,297,3.0,7.0,42,0.00,CLR,,0.00,WeatherDisplay:10.37,2013-03-23 03:22:00,
2013-03-23 14:26:00,93.9,67.3,29.79,WNW,285,2.0,12.0,42,0.00,CLR,,0.00,WeatherDisplay:10.37,2013-03-23 03:26:00,
2013-03-23 14:32:00,94.3,67.6,29.78,WNW,301,1.0,5.0,42,0.00,CLR,,0.00,WeatherDisplay:10.37,2013-03-23 03:32:00,
2013-03-23 14:36:00,94.6,68.0,29.78,NW,320,2.0,6.0,42,0.00,CLR,,0.00,WeatherDisplay:10.37,2013-03-23 03:36:00,
2013-03-23 14:41:00,94.8,67.4,29.78,NNW,332,2.0,9.0,41,0.00,CLR,,0.00,WeatherDisplay:10.37,2013-03-23 03:41:00,
2013-03-23 14:46:00,94.8,67.4,29.77,NNW,332,1.0,6.0,41,0.00,CLR,,0.00,WeatherDisplay:10.37,2013-03-23 03:46:00,
2013-03-23 14:56:00,94.8,67.4,29.77,NW,318,2.0,7.0,41,0.00,CLR,,0.00,WeatherDisplay:10.37,2013-03-23 03:56:00,
2013-03-23 15:01:00,94.6,67.2,29.78,NNW,327,2.0,7.0,41,0.00,CLR,,0.00,WeatherDisplay:10.37,2013-03-23 04:01:00,
2013-03-23 15:06:00,94.3,67.0,29.78,NNW,336,5.0,8.0,41,0.00,CLR,,0.00,WeatherDisplay:10.37,2013-03-23 04:06:00,
2013-03-23 15:16:00,94.1,67.5,29.77,NNW,332,3.0,6.0,42,0.00,CLR,,0.00,WeatherDisplay:10.37,2013-03-23 04:16:00,
2013-03-23 15:21:00,94.3,67.0,29.78,NW,320,5.0,13.0,41,0.00,CLR,,0.00,WeatherDisplay:10.37,2013-03-23 04:21:00,
2013-03-23 15:26:00,94.1,67.5,29.78,WNW,289,5.0,8.0,42,0.00,CLR,,0.00,WeatherDisplay:10.37,2013-03-23 04:26:00,
2013-03-23 15:31:00,94.1,66.8,29.78,WNW,285,3.0,6.0,41,0.00,CLR,,0.00,WeatherDisplay:10.37,2013-03-23 04:31:00,
2013-03-23 15:36:00,94.1,67.5,29.78,WNW,286,5.0,7.0,42,0.00,CLR,,0.00,WeatherDisplay:10.37,2013-03-23 04:36:00,
2013-03-23 15:41:00,93.7,67.2,29.77,NW,306,5.0,7.0,42,0.00,CLR,,0.00,WeatherDisplay:10.37,2013-03-23 04:41:00,
2013-03-23 15:46:00,93.3,66.8,29.78,WNW,284,2.0,7.0,42,0.00,CLR,,0.00,WeatherDisplay:10.37,2013-03-23 04:46:00,
2013-03-23 15:51:00,92.6,66.9,29.77,West,277,1.0,5.0,43,0.00,CLR,,0.00,WeatherDisplay:10.37,2013-03-23 04:51:00,
2013-03-23 15:56:00,92.2,66.5,29.77,WNW,299,2.0,5.0,43,0.00,CLR,,0.00,WeatherDisplay:10.37,2013-03-23 04:56:00,
2013-03-23 16:01:00,92.0,67.0,29.77,West,281,2.0,5.0,44,0.00,CLR,,0.00,WeatherDisplay:10.37,2013-03-23 05:01:00,
2013-03-23 16:07:00,91.8,66.7,29.77,West,274,1.0,3.0,44,0.00,CLR,,0.00,WeatherDisplay:10.37,2013-03-23 05:07:00,
2013-03-23 16:11:00,91.6,66.6,29.77,WSW,256,2.0,4.0,44,0.00,CLR,,0.00,WeatherDisplay:10.37,2013-03-23 05:11:00,
2013-03-23 16:16:00,91.6,67.2,29.78,SW,220,3.0,5.0,45,0.00,CLR,,0.00,WeatherDisplay:10.37,2013-03-23 05:16:00,
2013-03-23 16:21:00,91.2,68.2,29.78,SW,236,1.0,7.0,47,0.00,CLR,,0.00,WeatherDisplay:10.37,2013-03-23 05:21:00,
2013-03-23 16:26:00,90.5,68.1,29.79,SW,217,2.0,10.0,48,0.00,CLR,,0.00,WeatherDisplay:10.37,2013-03-23 05:26:00,
2013-03-23 16:31:00,89.8,68.7,29.79,ESE,104,1.0,8.0,50,0.00,CLR,,0.00,WeatherDisplay:10.37,2013-03-23 05:31:00,
2013-03-23 16:36:00,89.3,68.8,29.78,ENE,62,2.0,9.0,51,0.00,CLR,,0.00,WeatherDisplay:10.37,2013-03-23 05:36:00,
2013-03-23 16:41:00,88.7,67.6,29.79,NNE,16,1.0,7.0,50,0.00,CLR,,0.00,WeatherDisplay:10.37,2013-03-23 05:41:00,
2013-03-23 16:46:00,88.0,67.6,29.80,South,176,3.0,6.0,51,0.00,CLR,,0.00,WeatherDisplay:10.37,2013-03-23 05:46:00,
2013-03-23 16:51:00,87.5,67.7,29.80,East,90,2.0,5.0,52,0.00,CLR,,0.00,WeatherDisplay:10.37,2013-03-23 05:51:00,
2013-03-23 16:56:00,86.9,67.2,29.80,NE,50,0.0,5.0,52,0.00,CLR,,0.00,WeatherDisplay:10.37,2013-03-23 05:56:00,
2013-03-23 17:01:00,86.7,67.0,29.80,SW,235,1.0,8.0,52,0.00,CLR,,0.00,WeatherDisplay:10.37,2013-03-23 06:01:00,
2013-03-23 17:06:00,86.6,66.9,29.80,ESE,117,2.0,5.0,52,0.00,CLR,,0.00,WeatherDisplay:10.37,2013-03-23 06:06:00,
2013-03-23 17:12:00,86.4,66.7,29.80,South,176,2.0,6.0,52,0.00,CLR,,0.00,WeatherDisplay:10.37,2013-03-23 06:12:00,
2013-03-23 17:16:00,86.2,66.5,29.80,SSW,206,1.0,5.0,52,0.00,CLR,,0.00,WeatherDisplay:10.37,2013-03-23 06:16:00,
2013-03-23 17:21:00,85.9,66.2,29.80,South,176,1.0,4.0,52,0.00,CLR,,0.00,WeatherDisplay:10.37,2013-03-23 06:21:00,
2013-03-23 17:27:00,85.7,66.6,29.80,SE,137,1.0,5.0,53,0.00,CLR,,0.00,WeatherDisplay:10.37,2013-03-23 06:27:00,
2013-03-23 17:31:00,85.6,66.5,29.80,NE,55,0.0,4.0,53,0.00,CLR,,0.00,WeatherDisplay:10.37,2013-03-23 06:31:00,
2013-03-23 17:36:00,85.3,66.2,29.80,ENE,78,1.0,3.0,53,0.00,CLR,,0.00,WeatherDisplay:10.37,2013-03-23 06:36:00,
2013-03-23 17:41:00,84.9,65.9,29.81,ESE,117,2.0,6.0,53,0.00,CLR,,0.00,WeatherDisplay:10.37,2013-03-23 06:41:00,
2013-03-23 17:46:00,84.7,66.3,29.81,ESE,110,0.0,2.0,54,0.00,CLR,,0.00,WeatherDisplay:10.37,2013-03-23 06:46:00,
2013-03-23 17:51:00,84.4,65.9,29.81,ENE,57,1.0,4.0,54,0.00,CLR,,0.00,WeatherDisplay:10.37,2013-03-23 06:51:00,
2013-03-23 17:56:00,84.0,66.1,29.81,NNE,23,1.0,3.0,55,0.00,CLR,,0.00,WeatherDisplay:10.37,2013-03-23 06:56:00,
2013-03-23 18:01:00,83.9,66.5,29.81,ENE,63,1.0,5.0,56,0.00,CLR,,0.00,WeatherDisplay:10.37,2013-03-23 07:01:00,
2013-03-23 18:06:00,83.8,66.9,29.81,South,188,1.0,5.0,57,0.00,CLR,,0.00,WeatherDisplay:10.37,2013-03-23 07:06:00,
2013-03-23 18:11:00,83.3,67.5,29.81,ESE,113,2.0,4.0,59,0.00,CLR,,0.00,WeatherDisplay:10.37,2013-03-23 07:11:00,
2013-03-23 18:16:00,82.9,67.1,29.81,NE,49,1.0,3.0,59,0.00,CLR,,0.00,WeatherDisplay:10.37,2013-03-23 07:16:00,
2013-03-23 18:21:00,82.6,67.3,29.81,ENE,76,1.0,5.0,60,0.00,CLR,,0.00,WeatherDisplay:10.37,2013-03-23 07:21:00,
2013-03-23 18:31:00,82.0,66.7,29.81,NE,54,0.0,2.0,60,0.00,CLR,,0.00,WeatherDisplay:10.37,2013-03-23 07:31:00,
2013-03-23 18:41:00,81.5,66.8,29.81,East,91,0.0,2.0,61,0.00,CLR,,0.00,WeatherDisplay:10.37,2013-03-23 07:41:00,
2013-03-23 18:46:00,81.1,66.4,29.82,North,355,0.0,2.0,61,0.00,CLR,,0.00,WeatherDisplay:10.37,2013-03-23 07:46:00,
2013-03-23 18:51:00,81.0,66.2,29.82,North,354,0.0,2.0,61,0.00,CLR,,0.00,WeatherDisplay:10.37,2013-03-23 07:51:00,
2013-03-23 18:57:00,80.8,66.5,29.82,ESE,120,0.0,1.0,62,0.00,CLR,,0.00,WeatherDisplay:10.37,2013-03-23 07:57:00,
2013-03-23 19:06:00,80.4,66.2,29.82,NNE,26,0.0,1.0,62,0.00,CLR,,0.00,WeatherDisplay:10.37,2013-03-23 08:06:00,
2013-03-23 19:11:00,80.3,66.1,29.82,NE,37,0.0,2.0,62,0.00,CLR,,0.00,WeatherDisplay:10.37,2013-03-23 08:11:00,
2013-03-23 19:16:00,80.2,66.5,29.82,NE,34,0.0,0.0,63,0.00,CLR,,0.00,WeatherDisplay:10.37,2013-03-23 08:16:00,
2013-03-23 19:21:00,79.9,66.2,29.82,ENE,63,0.0,0.0,63,0.00,CLR,,0.00,WeatherDisplay:10.37,2013-03-23 08:21:00,
2013-03-23 19:26:00,79.9,66.2,29.83,East,85,0.0,1.0,63,0.00,CLR,,0.00,WeatherDisplay:10.37,2013-03-23 08:26:00,
2013-03-23 19:31:00,79.7,66.4,29.83,NE,45,1.0,3.0,64,0.00,CLR,,0.00,WeatherDisplay:10.37,2013-03-23 08:31:00,
2013-03-23 19:36:00,79.5,66.3,29.82,NNE,19,0.0,3.0,64,0.00,CLR,,0.00,WeatherDisplay:10.37,2013-03-23 08:36:00,
2013-03-23 19:41:00,79.5,66.7,29.83,NE,45,0.0,2.0,65,0.00,CLR,,0.00,WeatherDisplay:10.37,2013-03-23 08:41:00,
2013-03-23 19:51:00,79.3,67.0,29.83,NE,39,0.0,2.0,66,0.00,CLR,,0.00,WeatherDisplay:10.37,2013-03-23 08:51:00,
2013-03-23 19:56:00,79.2,66.8,29.83,ENE,71,0.0,1.0,66,0.00,CLR,,0.00,WeatherDisplay:10.37,2013-03-23 08:56:00,
2013-03-23 20:06:00,79.1,66.8,29.84,SSE,168,0.0,2.0,66,0.00,CLR,,0.00,WeatherDisplay:10.37,2013-03-23 09:06:00,
2013-03-23 20:11:00,79.0,66.6,29.85,SSE,165,0.0,0.0,66,0.00,CLR,,0.00,WeatherDisplay:10.37,2013-03-23 09:11:00,
2013-03-23 20:16:00,79.0,67.1,29.84,SE,132,0.0,0.0,67,0.00,CLR,,0.00,WeatherDisplay:10.37,2013-03-23 09:16:00,
2013-03-23 20:21:00,79.0,67.1,29.85,ENE,61,0.0,2.0,67,0.00,CLR,,0.00,WeatherDisplay:10.37,2013-03-23 09:21:00,
2013-03-23 20:26:00,78.8,66.9,29.84,NNE,29,0.0,2.0,67,0.00,CLR,,0.00,WeatherDisplay:10.37,2013-03-23 09:26:00,
2013-03-23 20:31:00,78.6,67.2,29.85,NNE,24,0.0,0.0,68,0.00,CLR,,0.00,WeatherDisplay:10.37,2013-03-23 09:31:00,
2013-03-23 20:36:00,78.6,67.2,29.85,East,83,0.0,0.0,68,0.00,CLR,,0.00,WeatherDisplay:10.37,2013-03-23 09:36:00,
2013-03-23 20:41:00,78.6,67.2,29.85,SE,141,0.0,2.0,68,0.00,CLR,,0.00,WeatherDisplay:10.37,2013-03-23 09:41:00,
2013-03-23 20:46:00,78.6,67.2,29.85,SSE,157,0.0,0.0,68,0.00,CLR,,0.00,WeatherDisplay:10.37,2013-03-23 09:46:00,
2013-03-23 20:51:00,78.6,67.2,29.85,SE,142,0.0,0.0,68,0.00,CLR,,0.00,WeatherDisplay:10.37,2013-03-23 09:51:00,
2013-03-23 20:56:00,78.6,67.2,29.85,ESE,115,0.0,0.0,68,0.00,CLR,,0.00,WeatherDisplay:10.37,2013-03-23 09:56:00,
2013-03-23 21:01:00,78.6,67.2,29.85,ESE,119,0.0,0.0,68,0.00,CLR,,0.00,WeatherDisplay:10.37,2013-03-23 10:01:00,
2013-03-23 21:06:00,78.4,67.0,29.86,ESE,118,0.0,0.0,68,0.00,CLR,,0.00,WeatherDisplay:10.37,2013-03-23 10:06:00,
2013-03-23 21:11:00,78.4,67.4,29.85,East,94,0.0,0.0,69,0.00,CLR,,0.00,WeatherDisplay:10.37,2013-03-23 10:11:00,
2013-03-23 21:16:00,78.4,67.4,29.85,ESE,118,0.0,0.0,69,0.00,CLR,,0.00,WeatherDisplay:10.37,2013-03-23 10:16:00,
2013-03-23 21:26:00,78.4,67.4,29.86,South,184,0.0,0.0,69,0.00,CLR,,0.00,WeatherDisplay:10.37,2013-03-23 10:26:00,
2013-03-23 21:31:00,78.4,67.4,29.86,ESE,108,0.0,0.0,69,0.00,CLR,,0.00,WeatherDisplay:10.37,2013-03-23 10:31:00,
2013-03-23 21:36:00,78.4,67.8,29.86,East,79,0.0,0.0,70,0.00,CLR,,0.00,WeatherDisplay:10.37,2013-03-23 10:36:00,
2013-03-23 21:41:00,78.3,67.7,29.86,East,83,0.0,0.0,70,0.00,CLR,,0.00,WeatherDisplay:10.37,2013-03-23 10:41:00,
2013-03-23 21:46:00,78.3,67.7,29.87,East,80,0.0,0.0,70,0.00,CLR,,0.00,WeatherDisplay:10.37,2013-03-23 10:46:00,
2013-03-23 21:51:00,78.1,67.5,29.86,SE,125,0.0,0.0,70,0.00,CLR,,0.00,WeatherDisplay:10.37,2013-03-23 10:51:00,
2013-03-23 21:56:00,78.1,67.5,29.87,South,181,0.0,0.0,70,0.00,CLR,,0.00,WeatherDisplay:10.37,2013-03-23 10:56:00,
2013-03-23 22:02:00,77.9,67.3,29.87,SSW,196,0.0,0.0,70,0.00,CLR,,0.00,WeatherDisplay:10.37,2013-03-23 11:02:00,
2013-03-23 22:06:00,77.9,67.3,29.87,South,182,0.0,0.0,70,0.00,CLR,,0.00,WeatherDisplay:10.37,2013-03-23 11:06:00,
2013-03-23 22:11:00,77.7,67.2,29.87,SSE,165,0.0,0.0,70,0.00,CLR,,0.00,WeatherDisplay:10.37,2013-03-23 11:11:00,
2013-03-23 22:16:00,77.7,67.6,29.87,South,172,0.0,1.0,71,0.00,CLR,,0.00,WeatherDisplay:10.37,2013-03-23 11:16:00,
2013-03-23 22:21:00,77.5,67.4,29.87,South,182,0.0,0.0,71,0.00,CLR,,0.00,WeatherDisplay:10.37,2013-03-23 11:21:00,
2013-03-23 22:26:00,77.5,67.4,29.87,South,180,0.0,2.0,71,0.00,CLR,,0.00,WeatherDisplay:10.37,2013-03-23 11:26:00,
2013-03-23 22:31:00,77.5,67.4,29.87,South,172,0.0,0.0,71,0.00,CLR,,0.00,WeatherDisplay:10.37,2013-03-23 11:31:00,
2013-03-23 22:36:00,77.5,67.8,29.87,SSE,166,0.0,0.0,72,0.00,CLR,,0.00,WeatherDisplay:10.37,2013-03-23 11:36:00,
2013-03-23 22:41:00,77.5,67.8,29.87,SE,129,0.0,0.0,72,0.00,CLR,,0.00,WeatherDisplay:10.37,2013-03-23 11:41:00,
2013-03-23 22:46:00,77.5,67.7,29.87,ESE,113,0.0,0.0,72,0.00,CLR,,0.00,WeatherDisplay:10.37,2013-03-23 11:46:00,
2013-03-23 22:51:00,77.5,67.8,29.88,SE,135,0.0,0.0,72,0.00,CLR,,0.00,WeatherDisplay:10.37,2013-03-23 11:51:00,
2013-03-23 22:56:00,77.4,67.6,29.86,SE,125,0.0,1.0,72,0.00,CLR,,0.00,WeatherDisplay:10.37,2013-03-23 11:56:00,
2013-03-23 23:01:00,77.3,67.6,29.87,ESE,108,0.0,2.0,72,0.00,CLR,,0.00,WeatherDisplay:10.37,2013-03-23 12:01:00,
2013-03-23 23:07:00,77.2,67.5,29.87,ESE,115,0.0,0.0,72,0.00,CLR,,0.00,WeatherDisplay:10.37,2013-03-23 12:07:00,
2013-03-23 23:11:00,77.2,67.5,29.86,East,88,0.0,2.0,72,0.00,CLR,,0.00,WeatherDisplay:10.37,2013-03-23 12:11:00,
2013-03-23 23:16:00,77.2,67.5,29.86,ENE,78,0.0,2.0,72,0.00,CLR,,0.00,WeatherDisplay:10.37,2013-03-23 12:16:00,
2013-03-23 23:21:00,77.1,67.4,29.86,WSW,245,0.0,0.0,72,0.00,CLR,,0.00,WeatherDisplay:10.37,2013-03-23 12:21:00,
2013-03-23 23:26:00,77.0,67.3,29.86,SSW,213,0.0,3.0,72,0.00,CLR,,0.00,WeatherDisplay:10.37,2013-03-23 12:26:00,
2013-03-23 23:31:00,76.8,67.5,29.87,SSE,168,0.0,3.0,73,0.00,CLR,,0.00,WeatherDisplay:10.37,2013-03-23 12:31:00,
2013-03-23 23:36:00,76.8,67.5,29.87,SE,135,0.0,0.0,73,0.00,CLR,,0.00,WeatherDisplay:10.37,2013-03-23 12:36:00,
2013-03-23 23:41:00,76.8,67.5,29.87,SE,132,0.0,0.0,73,0.00,CLR,,0.00,WeatherDisplay:10.37,2013-03-23 12:41:00,
2013-03-23 23:47:00,76.6,67.3,29.87,South,169,0.0,0.0,73,0.00,CLR,,0.00,WeatherDisplay:10.37,2013-03-23 12:47:00,
2013-03-23 23:56:00,76.5,67.2,29.87,SSW,193,0.0,0.0,73,0.00,CLR,,0.00,WeatherDisplay:10.37,2013-03-23 12:56:00,